When you browse on this site, cookies collect data to enhance your experience and personalize the content and advertising you see.
Visit our Privacy Policy to learn more. By continuing to use the site, you agree to this use of cookies and data.
  • In Hungary
  • List of Countries
  • For 7 days
  • Water Temperature
  • Weather Map
  • News
  • Weather Widgets
  • user-avatar
    Login

    Hourly Weather Malyy Nagadak

    Today, 22 October, Tuesday

    Time Temperature Precipitation Wind Pressure Humidity
    00:00 +3°C° 0 mm 7 mps 754 mmHg 72%
    01:00 +3°C° 0 mm 7 mps 754 mmHg 72%
    02:00 +3°C° 0 mm 7 mps 753 mmHg 71%
    03:00 +2°C° 0 mm 8 mps 752 mmHg 71%
    04:00 +3°C° 0 mm 7 mps 752 mmHg 72%
    05:00 +3°C° 0.1 mm 7 mps 751 mmHg 73%
    06:00 +2°C° 0.1 mm 8 mps 751 mmHg 74%
    07:00 +4°C° 0.1 mm 8 mps 750 mmHg 75%
    08:00 +4°C° 1.5 mm 8 mps 750 mmHg 79%
    09:00 +4°C° 1.5 mm 8 mps 750 mmHg 83%
    10:00 +4°C° 0 mm 8 mps 749 mmHg 87%
    11:00 +4°C° 0.6 mm 7 mps 749 mmHg 88%
    12:00 +4°C° 0.6 mm 6 mps 749 mmHg 89%
    13:00 +4°C° 0.6 mm 6 mps 749 mmHg 91%
    14:00 +6°C° 0.1 mm 5 mps 749 mmHg 91%
    15:00 +6°C° 0.1 mm 4 mps 750 mmHg 91%
    16:00 +7°C° 0 mm 3 mps 750 mmHg 91%
    17:00 +7°C° 0 mm 3 mps 750 mmHg 92%
    18:00 +7°C° 0 mm 3 mps 750 mmHg 93%
    19:00 +7°C° 0 mm 3 mps 750 mmHg 95%
    20:00 +7°C° 0.1 mm 3 mps 750 mmHg 94%
    21:00 +7°C° 0.1 mm 3 mps 750 mmHg 94%
    22:00 +7°C° 0.1 mm 2 mps 750 mmHg 93%
    23:00 +6°C° 0 mm 2 mps 750 mmHg 91%

    Tomorrow, 23 October, Wednesday

    Time Temperature Precipitation Wind Pressure Humidity
    00:00 +6°C° 0 mm 2 mps 750 mmHg 89%
    01:00 +6°C° 0 mm 2 mps 750 mmHg 87%
    02:00 +6°C° 0 mm 1 mps 750 mmHg 87%
    03:00 +6°C° 0 mm 1 mps 750 mmHg 87%
    04:00 +5°C° 0 mm 1 mps 750 mmHg 87%
    05:00 +5°C° 0 mm 1 mps 750 mmHg 89%
    06:00 +3°C° 0 mm 2 mps 750 mmHg 90%
    07:00 +3°C° 0 mm 2 mps 750 mmHg 91%
    08:00 +4°C° 0 mm 2 mps 750 mmHg 88%
    09:00 +5°C° 0 mm 2 mps 751 mmHg 85%
    10:00 +5°C° 0 mm 2 mps 751 mmHg 81%
    11:00 +5°C° 0 mm 3 mps 750 mmHg 79%
    12:00 +7°C° 0 mm 3 mps 750 mmHg 77%
    13:00 +6°C° 0 mm 4 mps 750 mmHg 74%
    14:00 +6°C° 0 mm 4 mps 749 mmHg 75%
    15:00 +6°C° 0 mm 5 mps 749 mmHg 75%
    16:00 +6°C° 0 mm 5 mps 749 mmHg 76%
    17:00 +6°C° 0 mm 5 mps 749 mmHg 76%
    18:00 +5°C° 0 mm 5 mps 748 mmHg 77%
    19:00 +5°C° 0 mm 5 mps 748 mmHg 78%
    20:00 +5°C° 0 mm 5 mps 748 mmHg 79%
    21:00 +5°C° 0 mm 5 mps 748 mmHg 80%
    22:00 +6°C° 0 mm 5 mps 747 mmHg 81%
    23:00 +6°C° 0 mm 5 mps 747 mmHg 83%

    Day after tomorrow, 24 October, Thursday

    Time Temperature Precipitation Wind Pressure Humidity
    00:00 +6°C° 0 mm 5 mps 747 mmHg 85%
    01:00 +6°C° 0 mm 5 mps 746 mmHg 87%
    02:00 +7°C° 0 mm 4 mps 747 mmHg 88%
    03:00 +7°C° 0 mm 4 mps 747 mmHg 89%
    04:00 +7°C° 0 mm 4 mps 747 mmHg 91%
    05:00 +7°C° 0 mm 4 mps 747 mmHg 92%
    06:00 +7°C° 0 mm 4 mps 747 mmHg 93%
    07:00 +7°C° 0 mm 4 mps 747 mmHg 94%
    08:00 +7°C° 0 mm 4 mps 747 mmHg 92%
    09:00 +7°C° 0 mm 4 mps 748 mmHg 90%
    10:00 +8°C° 0 mm 4 mps 748 mmHg 88%
    11:00 +9°C° 0 mm 3 mps 748 mmHg 86%
    12:00 +9°C° 0 mm 3 mps 749 mmHg 84%
    13:00 +10°C° 0 mm 3 mps 749 mmHg 81%
    14:00 +9°C° 0 mm 3 mps 749 mmHg 79%
    15:00 +9°C° 0 mm 2 mps 749 mmHg 77%
    16:00 +9°C° 0 mm 2 mps 750 mmHg 75%
    17:00 +9°C° 0 mm 2 mps 750 mmHg 77%
    18:00 +8°C° 0 mm 2 mps 750 mmHg 79%
    19:00 +7°C° 0 mm 2 mps 750 mmHg 81%
    20:00 +7°C° 0 mm 2 mps 751 mmHg 83%
    21:00 +7°C° 0 mm 2 mps 751 mmHg 85%
    22:00 +6°C° 0 mm 2 mps 751 mmHg 87%
    23:00 +6°C° 0 mm 2 mps 751 mmHg 88%

    25 October, Friday

    Time Temperature Precipitation Wind Pressure Humidity
    00:00 +6°C° 0 mm 2 mps 752 mmHg 88%
    01:00 +5°C° 0 mm 2 mps 752 mmHg 89%
    02:00 +5°C° 0 mm 2 mps 752 mmHg 90%
    03:00 +5°C° 0 mm 2 mps 752 mmHg 91%
    04:00 +5°C° 0 mm 2 mps 752 mmHg 91%
    05:00 +6°C° 0 mm 1 mps 752 mmHg 92%
    06:00 +5°C° 0 mm 1 mps 752 mmHg 92%
    07:00 +5°C° 0 mm 1 mps 752 mmHg 93%
    08:00 +6°C° 0 mm 1 mps 752 mmHg 89%
    09:00 +7°C° 0 mm 1 mps 752 mmHg 86%
    10:00 +7°C° 0 mm 1 mps 753 mmHg 83%
    11:00 +8°C° 0 mm 1 mps 753 mmHg 79%
    12:00 +9°C° 0 mm 1 mps 753 mmHg 75%
    13:00 +9°C° 0 mm 2 mps 753 mmHg 71%
    14:00 +10°C° 0 mm 1 mps 753 mmHg 72%
    15:00 +10°C° 0 mm 1 mps 753 mmHg 73%
    16:00 +10°C° 0 mm 1 mps 753 mmHg 74%
    17:00 +9°C° 0 mm 1 mps 753 mmHg 77%
    18:00 +8°C° 0 mm 1 mps 753 mmHg 80%
    19:00 +8°C° 0 mm 1 mps 754 mmHg 83%
    20:00 +7°C° 0 mm 1 mps 754 mmHg 85%
    21:00 +7°C° 0 mm 1 mps 754 mmHg 87%
    22:00 +6°C° 0 mm 2 mps 754 mmHg 89%
    23:00 +5°C° 0 mm 2 mps 754 mmHg 89%

    26 October, Saturday

    Time Temperature Precipitation Wind Pressure Humidity
    00:00 +5°C° 0 mm 2 mps 754 mmHg 90%
    01:00 +5°C° 0 mm 2 mps 754 mmHg 91%
    02:00 +5°C° 0 mm 2 mps 754 mmHg 91%
    03:00 +4°C° 0 mm 2 mps 754 mmHg 92%
    04:00 +4°C° 0 mm 2 mps 755 mmHg 92%
    05:00 +4°C° 0 mm 2 mps 755 mmHg 92%
    06:00 +4°C° 0 mm 2 mps 755 mmHg 92%
    07:00 +4°C° 0 mm 2 mps 755 mmHg 93%
    08:00 +4°C° 0 mm 3 mps 755 mmHg 89%
    09:00 +5°C° 0 mm 3 mps 755 mmHg 86%
    10:00 +8°C° 0 mm 3 mps 755 mmHg 82%
    11:00 +9°C° 0 mm 3 mps 754 mmHg 78%
    12:00 +10°C° 0 mm 4 mps 754 mmHg 75%
    13:00 +11°C° 0 mm 4 mps 754 mmHg 71%
    14:00 +11°C° 0 mm 4 mps 753 mmHg 75%
    15:00 +11°C° 0 mm 4 mps 753 mmHg 78%
    16:00 +11°C° 0 mm 4 mps 753 mmHg 81%
    17:00 +10°C° 0 mm 4 mps 753 mmHg 83%
    18:00 +10°C° 0 mm 4 mps 753 mmHg 84%
    19:00 +8°C° 0 mm 4 mps 752 mmHg 86%
    20:00 +8°C° 0 mm 5 mps 752 mmHg 86%
    21:00 +8°C° 0 mm 5 mps 752 mmHg 85%
    22:00 +8°C° 0 mm 5 mps 752 mmHg 84%
    23:00 +7°C° 0 mm 5 mps 751 mmHg 84%

    27 October, Sunday

    Time Temperature Precipitation Wind Pressure Humidity
    00:00 +7°C° 0 mm 5 mps 751 mmHg 83%
    01:00 +7°C° 0 mm 4 mps 751 mmHg 82%
    02:00 +7°C° 0 mm 4 mps 751 mmHg 82%
    03:00 +7°C° 0 mm 5 mps 751 mmHg 82%
    04:00 +6°C° 0 mm 5 mps 751 mmHg 82%
    05:00 +6°C° 0 mm 4 mps 751 mmHg 82%
    06:00 +6°C° 0 mm 4 mps 751 mmHg 81%
    07:00 +5°C° 0 mm 4 mps 751 mmHg 81%
    08:00 +6°C° 0 mm 5 mps 751 mmHg 76%
    09:00 +7°C° 0 mm 6 mps 750 mmHg 72%
    10:00 +8°C° 0 mm 6 mps 750 mmHg 67%
    11:00 +9°C° 0 mm 6 mps 750 mmHg 63%
    12:00 +11°C° 0 mm 7 mps 750 mmHg 60%
    13:00 +12°C° 0 mm 7 mps 749 mmHg 56%
    14:00 +11°C° 0 mm 6 mps 749 mmHg 57%
    15:00 +11°C° 0 mm 6 mps 749 mmHg 57%
    16:00 +12°C° 0 mm 5 mps 748 mmHg 58%
    17:00 +10°C° 0 mm 6 mps 748 mmHg 59%
    18:00 +9°C° 0 mm 6 mps 748 mmHg 61%
    19:00 +9°C° 0 mm 6 mps 748 mmHg 63%
    20:00 +8°C° 0 mm 6 mps 748 mmHg 63%
    21:00 +8°C° 0 mm 6 mps 747 mmHg 64%
    22:00 +8°C° 0 mm 6 mps 747 mmHg 64%
    23:00 +8°C° 0 mm 6 mps 747 mmHg 66%

    28 October, Monday

    Time Temperature Precipitation Wind Pressure Humidity
    00:00 +7°C° 0 mm 6 mps 746 mmHg 67%
    01:00 +7°C° 0 mm 6 mps 746 mmHg 69%
    02:00 +7°C° 0 mm 6 mps 746 mmHg 70%
    03:00 +7°C° 0 mm 6 mps 745 mmHg 72%
    04:00 +6°C° 0 mm 7 mps 745 mmHg 74%
    05:00 +6°C° 0 mm 7 mps 744 mmHg 74%
    06:00 +5°C° 0 mm 7 mps 744 mmHg 75%
    07:00 +5°C° 0 mm 8 mps 743 mmHg 75%
    08:00 +6°C° 0 mm 8 mps 743 mmHg 72%
    09:00 +7°C° 0 mm 9 mps 742 mmHg 68%
    10:00 +8°C° 0 mm 9 mps 742 mmHg 64%
    11:00 +10°C° 0 mm 9 mps 741 mmHg 61%
    12:00 +11°C° 0 mm 9 mps 741 mmHg 57%
    13:00 +12°C° 0 mm 10 mps 740 mmHg 53%
    14:00 +12°C° 0 mm 9 mps 740 mmHg 54%
    15:00 +11°C° 0 mm 8 mps 740 mmHg 55%
    16:00 +11°C° 0 mm 8 mps 739 mmHg 56%
    17:00 +11°C° 0 mm 7 mps 739 mmHg 55%
    18:00 +10°C° 0 mm 7 mps 739 mmHg 54%
    19:00 +10°C° 0 mm 7 mps 739 mmHg 54%
    20:00 +10°C° 0.1 mm 7 mps 739 mmHg 58%
    21:00 +9°C° 0.1 mm 6 mps 738 mmHg 63%
    22:00 +9°C° 0.1 mm 6 mps 738 mmHg 67%
    23:00 +9°C° 0.8 mm 5 mps 738 mmHg 73%
    Show more